Previsão horária em Allondrelle-la-Malmaison

Hoje, 15 Junho, Terça-feira

Tempo Temperatura Precipitação Vento Pressão Humidade
00:00 +16°C° 0 mm 1 m/s 738 mmHg 85%
01:00 +16°C° 0 mm 1 m/s 738 mmHg 86%
02:00 +16°C° 0 mm 1 m/s 738 mmHg 86%
03:00 +15°C° 0 mm 1 m/s 738 mmHg 87%
04:00 +16°C° 0 mm 1 m/s 738 mmHg 84%
05:00 +18°C° 0 mm 1 m/s 738 mmHg 82%
06:00 +19°C° 0 mm 1 m/s 739 mmHg 80%
07:00 +21°C° 0 mm 1 m/s 739 mmHg 76%
08:00 +23°C° 0 mm 1 m/s 739 mmHg 72%
09:00 +24°C° 0 mm 1 m/s 739 mmHg 67%
10:00 +25°C° 0 mm 1 m/s 739 mmHg 65%
11:00 +26°C° 0 mm 1 m/s 739 mmHg 62%
12:00 +27°C° 0 mm 1 m/s 739 mmHg 59%
13:00 +27°C° 0 mm 1 m/s 738 mmHg 60%
14:00 +27°C° 0 mm 1 m/s 738 mmHg 60%
15:00 +27°C° 0 mm 1 m/s 738 mmHg 61%
16:00 +26°C° 0.1 mm 1 m/s 738 mmHg 68%
17:00 +25°C° 0.1 mm 1 m/s 738 mmHg 74%
18:00 +25°C° 0.1 mm 2 m/s 737 mmHg 81%
19:00 +23°C° 0 mm 1 m/s 737 mmHg 83%
20:00 +22°C° 0 mm 1 m/s 737 mmHg 85%
21:00 +20°C° 0 mm 1 m/s 737 mmHg 87%
22:00 +19°C° 0 mm 1 m/s 737 mmHg 88%
23:00 +19°C° 0 mm 1 m/s 737 mmHg 89%

Amanhã, 16 Junho, Quarta-feira

Tempo Temperatura Precipitação Vento Pressão Humidade
00:00 +18°C° 0 mm 1 m/s 736 mmHg 89%
01:00 +18°C° 0 mm 1 m/s 736 mmHg 90%
02:00 +16°C° 0 mm 0 m/s 736 mmHg 90%
03:00 +15°C° 0 mm 0 m/s 736 mmHg 90%
04:00 +16°C° 0 mm 0 m/s 736 mmHg 89%
05:00 +18°C° 0 mm 0 m/s 736 mmHg 87%
06:00 +19°C° 0 mm 0 m/s 736 mmHg 86%
07:00 +22°C° 0 mm 1 m/s 736 mmHg 81%
08:00 +24°C° 0 mm 1 m/s 736 mmHg 75%
09:00 +25°C° 0 mm 1 m/s 736 mmHg 70%
10:00 +26°C° 0 mm 1 m/s 735 mmHg 66%
11:00 +27°C° 0 mm 1 m/s 735 mmHg 62%
12:00 +28°C° 0 mm 1 m/s 735 mmHg 58%
13:00 +28°C° 0 mm 1 m/s 735 mmHg 58%
14:00 +28°C° 0 mm 1 m/s 735 mmHg 57%
15:00 +28°C° 0 mm 1 m/s 734 mmHg 56%
16:00 +28°C° 0 mm 1 m/s 734 mmHg 63%
17:00 +27°C° 0 mm 1 m/s 734 mmHg 69%
18:00 +26°C° 0 mm 1 m/s 734 mmHg 76%
19:00 +25°C° 0 mm 1 m/s 734 mmHg 78%
20:00 +23°C° 0 mm 1 m/s 734 mmHg 81%
21:00 +21°C° 0 mm 1 m/s 734 mmHg 83%
22:00 +21°C° 0 mm 1 m/s 734 mmHg 84%
23:00 +20°C° 0 mm 1 m/s 734 mmHg 85%

Depois de amanhã, 17 Junho, Quinta-feira

Tempo Temperatura Precipitação Vento Pressão Humidade
00:00 +20°C° 0 mm 1 m/s 733 mmHg 85%
01:00 +20°C° 0 mm 1 m/s 733 mmHg 87%
02:00 +18°C° 0 mm 2 m/s 733 mmHg 88%
03:00 +18°C° 0 mm 2 m/s 733 mmHg 89%
04:00 +19°C° 0 mm 2 m/s 733 mmHg 87%
05:00 +20°C° 0 mm 2 m/s 733 mmHg 86%
06:00 +21°C° 0 mm 2 m/s 733 mmHg 85%
07:00 +22°C° 0 mm 3 m/s 733 mmHg 80%
08:00 +25°C° 0 mm 3 m/s 733 mmHg 76%
09:00 +26°C° 0 mm 3 m/s 733 mmHg 72%
10:00 +27°C° 0 mm 3 m/s 734 mmHg 70%
11:00 +28°C° 0 mm 3 m/s 734 mmHg 68%
12:00 +28°C° 0 mm 4 m/s 734 mmHg 65%
13:00 +29°C° 0 mm 3 m/s 734 mmHg 65%
14:00 +29°C° 0 mm 3 m/s 733 mmHg 64%
15:00 +29°C° 0 mm 3 m/s 733 mmHg 63%
16:00 +28°C° 0 mm 2 m/s 733 mmHg 68%
17:00 +28°C° 0 mm 1 m/s 733 mmHg 73%
18:00 +27°C° 0 mm 1 m/s 732 mmHg 78%
19:00 +23°C° 0.2 mm 0 m/s 733 mmHg 81%
20:00 +22°C° 0.2 mm 0 m/s 733 mmHg 85%
21:00 +20°C° 0.2 mm 0 m/s 733 mmHg 88%
22:00 +20°C° 2 mm 2 m/s 733 mmHg 91%
23:00 +19°C° 2 mm 3 m/s 734 mmHg 93%

18 Junho, Sexta-feira

Tempo Temperatura Precipitação Vento Pressão Humidade
00:00 +19°C° 2 mm 5 m/s 734 mmHg 96%
01:00 +18°C° 0.2 mm 4 m/s 734 mmHg 96%
02:00 +18°C° 0.2 mm 3 m/s 734 mmHg 97%
03:00 +19°C° 0.2 mm 1 m/s 733 mmHg 98%
04:00 +19°C° 0 mm 1 m/s 733 mmHg 96%
05:00 +19°C° 0 mm 2 m/s 734 mmHg 95%
06:00 +19°C° 0 mm 2 m/s 734 mmHg 93%
07:00 +20°C° 0.3 mm 3 m/s 734 mmHg 89%
08:00 +21°C° 0.3 mm 4 m/s 734 mmHg 84%
09:00 +22°C° 0.3 mm 5 m/s 735 mmHg 79%
10:00 +23°C° 0.4 mm 5 m/s 735 mmHg 78%
11:00 +23°C° 0.4 mm 6 m/s 735 mmHg 77%
12:00 +23°C° 0.4 mm 6 m/s 735 mmHg 76%
13:00 +22°C° 0.8 mm 6 m/s 735 mmHg 80%
14:00 +22°C° 0.8 mm 6 m/s 735 mmHg 84%
15:00 +21°C° 0.8 mm 6 m/s 735 mmHg 88%
16:00 +21°C° 0.4 mm 6 m/s 735 mmHg 88%
17:00 +20°C° 0.4 mm 6 m/s 735 mmHg 89%
18:00 +20°C° 0.4 mm 6 m/s 735 mmHg 89%
19:00 +19°C° 0 mm 5 m/s 735 mmHg 91%
20:00 +18°C° 0 mm 4 m/s 736 mmHg 93%
21:00 +17°C° 0 mm 3 m/s 736 mmHg 95%
22:00 +17°C° 0 mm 2 m/s 736 mmHg 96%
23:00 +16°C° 0 mm 2 m/s 736 mmHg 96%

19 Junho, Sábado

Tempo Temperatura Precipitação Vento Pressão Humidade
00:00 +16°C° 0 mm 1 m/s 736 mmHg 96%
01:00 +15°C° 0 mm 1 m/s 736 mmHg 96%
02:00 +15°C° 0 mm 1 m/s 737 mmHg 96%
03:00 +15°C° 0 mm 1 m/s 737 mmHg 97%
04:00 +16°C° 0 mm 1 m/s 737 mmHg 95%
05:00 +18°C° 0 mm 1 m/s 737 mmHg 94%
06:00 +19°C° 0 mm 1 m/s 737 mmHg 93%
07:00 +21°C° 0 mm 1 m/s 737 mmHg 86%
08:00 +21°C° 0 mm 2 m/s 737 mmHg 79%
09:00 +24°C° 0 mm 2 m/s 737 mmHg 72%
10:00 +25°C° 0 mm 2 m/s 737 mmHg 68%
11:00 +26°C° 0 mm 2 m/s 737 mmHg 64%
12:00 +27°C° 0 mm 1 m/s 737 mmHg 60%
13:00 +28°C° 0 mm 2 m/s 736 mmHg 60%
14:00 +28°C° 0 mm 2 m/s 736 mmHg 59%
15:00 +29°C° 0 mm 2 m/s 736 mmHg 59%
16:00 +28°C° 0.3 mm 2 m/s 735 mmHg 67%
17:00 +27°C° 0.3 mm 1 m/s 735 mmHg 75%
18:00 +26°C° 0.3 mm 1 m/s 735 mmHg 83%
19:00 +25°C° 0.2 mm 1 m/s 734 mmHg 85%
20:00 +23°C° 0.2 mm 2 m/s 734 mmHg 88%
21:00 +21°C° 0.2 mm 2 m/s 733 mmHg 90%
22:00 +21°C° 1.4 mm 2 m/s 733 mmHg 92%
23:00 +20°C° 1.4 mm 2 m/s 734 mmHg 94%

20 Junho, Domingo

Tempo Temperatura Precipitação Vento Pressão Humidade
00:00 +20°C° 1.4 mm 2 m/s 734 mmHg 96%
01:00 +20°C° 0.2 mm 1 m/s 734 mmHg 95%
02:00 +20°C° 0.2 mm 1 m/s 734 mmHg 95%
03:00 +20°C° 0.2 mm 1 m/s 734 mmHg 94%
04:00 +21°C° 0 mm 1 m/s 734 mmHg 93%
05:00 +22°C° 0 mm 1 m/s 734 mmHg 93%
06:00 +22°C° 0 mm 1 m/s 734 mmHg 92%
07:00 +23°C° 0 mm 1 m/s 734 mmHg 88%
08:00 +25°C° 0 mm 2 m/s 734 mmHg 85%
09:00 +26°C° 0 mm 2 m/s 734 mmHg 82%
10:00 +26°C° 0.2 mm 3 m/s 734 mmHg 82%
11:00 +26°C° 0.2 mm 4 m/s 735 mmHg 82%
12:00 +26°C° 0.2 mm 5 m/s 735 mmHg 82%
13:00 +26°C° 0.2 mm 5 m/s 735 mmHg 80%
14:00 +26°C° 0.2 mm 4 m/s 735 mmHg 78%
15:00 +26°C° 0.2 mm 4 m/s 735 mmHg 77%
16:00 +25°C° 0.1 mm 4 m/s 735 mmHg 81%
17:00 +25°C° 0.1 mm 4 m/s 735 mmHg 85%
18:00 +24°C° 0.1 mm 3 m/s 734 mmHg 89%
19:00 +23°C° 0.1 mm 2 m/s 734 mmHg 91%
20:00 +22°C° 0.1 mm 1 m/s 734 mmHg 93%
21:00 +19°C° 0.1 mm 0 m/s 734 mmHg 95%
22:00 +20°C° 0.2 mm 1 m/s 734 mmHg 96%
23:00 +20°C° 0.2 mm 1 m/s 734 mmHg 97%
Mostrar mais